Seattle, WA
on Saturday, February 2, 2013

Saturday
Previous Day Next Day
Daily Summary
 ActualAverageRecord
Temperature
Mean Temperature °F 43°F  
Max Temperature 43°F 49°F 64°F (1962)
Min Temperature 37°F 37°F 8°F (1950)
Degree Days
Heating Degree Days 25 22  
Month to date heating degree days 43 44  
Since 1 July heating degree days 2617 2693  
Cooling Degree Days 0 0  
Month to date cooling degree days 0 0  
Year to date cooling degree days 0 0  
Moisture
Dew Point 38°F   
Average Humidity 91    
Maximum Humidity 100    
Minimum Humidity 82    
Precipitation
Precipitation 0.00 in 0.13 in 1.32 in (1963)
Month to date precipitation 0.01 0.26  
Year to date precipitation 4.17 5.83  
Snow
Snow 0.00 in in 3.70 in (1949)
Month to date snowfall 0.0  
Since 1 July snowfall 0.6  
Snow Depth 0.00 in   
Wind
Wind Speed 5 mph   
Max Wind Speed 15 mph   
Max Gust Speed 16 mph   
Visibility 1 miles   
Events Fog   

Key: T is trace of precipitation, MM is missing value
Source: NWS Daily Summary
Time(PST)TemperatureDew PointHumidity Pressure Visibility Wind DirectionWind SpeedGust SpeedPrecipitationEvents Conditions
12:04 AM 42.8°F 39.2°F 87% 30.36 in 2.5 miles North 15.0 mph - N/A   Overcast
12:12 AM 42.8°F 39.2°F 87% 30.36 in 1.5 miles NNE 11.5 mph - N/A   Overcast
12:19 AM 42.8°F 39.2°F 87% 30.36 in 0.5 miles NNE 12.7 mph - N/A Fog Fog
12:48 AM 42.8°F 41.0°F 93% 30.37 in 0.2 miles North 9.2 mph - N/A Fog Fog
12:53 AM 43.0°F 39.9°F 89% 30.39 in 0.2 miles NNW 9.2 mph - N/A Fog Fog
1:53 AM 42.1°F 39.9°F 92% 30.40 in 0.2 miles North 9.2 mph - N/A Fog Fog
2:53 AM 42.1°F 39.9°F 92% 30.40 in 0.2 miles NNE 9.2 mph - N/A Fog Fog
3:53 AM 41.0°F 39.0°F 93% 30.38 in 0.2 miles North 6.9 mph - N/A Fog Fog
4:53 AM 41.0°F 39.0°F 93% 30.37 in 0.2 miles NNE 5.8 mph - N/A Fog Fog
5:53 AM 41.0°F 39.0°F 93% 30.35 in 0.2 miles North 6.9 mph - N/A Fog Fog
6:09 AM 41.0°F 39.2°F 93% 30.33 in 0.2 miles NNE 6.9 mph - N/A Fog Fog
6:53 AM 39.9°F 37.9°F 93% 30.34 in 0.2 miles NNE 8.1 mph - N/A Fog Fog
7:02 AM 39.2°F 37.4°F 93% 30.32 in 0.2 miles North 9.2 mph - N/A Fog Fog
7:33 AM 39.2°F 37.4°F 93% 30.32 in 0.2 miles NNE 9.2 mph - N/A Fog Fog
7:43 AM 39.2°F 37.4°F 93% 30.32 in 0.2 miles North 4.6 mph - N/A Fog Fog
7:53 AM 39.9°F 37.9°F 93% 30.35 in 0.2 miles NNE 8.1 mph - N/A Fog Fog
8:02 AM 39.2°F 37.4°F 93% 30.32 in 0.1 miles NNE 5.8 mph - N/A Fog Fog
8:53 AM 39.9°F 37.9°F 93% 30.35 in 0.1 miles NNW 5.8 mph - N/A Fog Fog
9:53 AM 39.9°F 37.9°F 93% 30.36 in 0.1 miles North 3.5 mph - N/A Fog Fog
10:38 AM 39.2°F 39.2°F 100% 30.33 in 0.2 miles Calm Calm - N/A Fog Fog
10:45 AM 41.0°F 39.2°F 93% 30.32 in 0.2 miles Variable 3.5 mph - N/A Fog Fog
10:53 AM 41.0°F 37.9°F 89% 30.35 in 0.2 miles Calm Calm - N/A Fog Fog
11:47 AM 41.0°F 37.4°F 87% 30.31 in 1.5 miles Calm Calm - N/A   Overcast
11:53 AM 41.0°F 39.0°F 93% 30.34 in 2.0 miles Calm Calm - N/A   Overcast
12:16 PM 41.0°F 39.2°F 93% 30.30 in 0.5 miles Calm Calm - N/A   Overcast
12:53 PM 41.0°F 37.9°F 89% 30.32 in 0.5 miles Calm Calm - N/A   Overcast
1:04 PM 41.0°F 39.2°F 93% 30.30 in 2.0 miles Calm Calm - N/A   Overcast
1:24 PM 42.8°F 39.2°F 87% 30.29 in 2.0 miles Calm Calm - N/A   Overcast
1:53 PM 42.1°F 39.0°F 89% 30.32 in 2.0 miles Calm Calm - N/A   Overcast
2:53 PM 43.0°F 39.0°F 86% 30.31 in 2.0 miles Calm Calm - N/A   Overcast
3:53 PM 42.1°F 37.9°F 85% 30.30 in 2.0 miles SSE 8.1 mph - N/A   Overcast
4:53 PM 41.0°F 37.9°F 89% 30.30 in 2.0 miles SSE 6.9 mph - N/A   Overcast
5:03 PM 41.0°F 37.4°F 87% 30.26 in 0.5 miles SE 6.9 mph - N/A   Overcast
5:53 PM 39.9°F 37.0°F 89% 30.28 in 0.5 miles SE 6.9 mph - N/A Fog Fog
6:33 PM 39.2°F 37.4°F 93% 30.27 in 0.1 miles Calm Calm - N/A Fog Fog
6:53 PM 39.9°F 37.9°F 93% 30.30 in 0.1 miles Calm Calm - N/A Fog Fog
7:53 PM 39.9°F 37.0°F 89% 30.29 in 0.1 miles ESE 4.6 mph - N/A Fog Fog
8:12 PM 39.2°F 37.4°F 93% 30.27 in 0.1 miles North 3.5 mph - N/A Fog Fog
8:53 PM 39.0°F 37.0°F 93% 30.30 in 0.1 miles Calm Calm - N/A Fog Fog
9:53 PM 37.9°F 37.0°F 97% 30.30 in 0.1 miles South 3.5 mph - N/A Fog Fog
10:53 PM 37.9°F 36.0°F 93% 30.30 in 0.1 miles South 4.6 mph - N/A Fog Fog
11:53 PM 37.9°F 36.0°F 93% 30.32 in 0.1 miles Calm Calm - N/A Fog Fog
Moon Phase
Feb. 02 Feb. 03 Feb. 10 Feb. 17 Feb. 25
Sunrise:07:33 AM (PST) Moon Rise:No Moon Rise/
Sunset:05:13 PM (PST) Moon Set:10:15 AM (PST)2/2

Copyright © 2014 The Weather Underground, Inc.